map of FLN home
Great Circle Mapper logo
FLN - Airport
Location
City:  Florianópolis, Santa Catarina, Brazil
Name:Hercílio Luz International Airport
ICAO / IATA:SBFL / FLN

Details
Type:Airport (Aerodrome, Airfield)
Use:Public/Civil, Military, International (customs port of entry)
Latitude:27°40'14"S (-27.670488)
Longitude:48°32'50"W (-48.547180)
Datum:WGS 1984
Elevation:20 ft (6 m)
Variation:18.9°W (WMM2015 magnetic declination)
Runways:2
Longest:7546 × 148 ft (2300 × 45 m), paved

Time
Time Zone:UTC-3 (DST-2)
Local Time:

Weather
METAR:SBFL 230300Z 21011KT 9999 SCT020 BKN080 22/17 Q1017
TAF:SBFL 222210Z 2306/2406 16010KT 9999 SCT020 TN20/2308Z TX26/2317Z PROB40
TEMPO 2306/2311 5000 BR SCT010 BKN020
BECMG 2313/2315 SCT025
RMK PEL

Related Locations
Nearby:
Farthest:KKX: 12339 mi / 19857 km
Kikaiga Shima, Kikai-Shima Island, JP

Find:

   beyond  
but within

Other Information
Maps:
NOTAMs:
Links:
Sources:

  
flag of Brazil
flag of Santa Catarina
  

Sectional Chart

Flight Planning
at skyvector.com

Satellite Image

Google Maps Satellite View

 

Copyright © 2004-2014 Karl L. Swartz. All rights reserved.
The Great Circle Mapper name and logo are trademarks of the Great Circle Mapper.
All other trademarks mentioned herein belong to their respective owners.
Please see credits for attibutions and further copyright information.

  Follow gcmap on Facebook Follow gcmap on Twitter

hCard Microformat

Geo Microformat